Wetterdaten: Dienstag, 01.12.2015
Datum Zeit Auen-Temp. Temp gefhlt Luftfeuchte Luftdruck Regen Wind Richtung Richtung Taupunkt Windben
01.12.2015 00:00 8,9 C 8,0 C 54 % 1023,5 hPa 0,0 mm 26,2 km/h (4 Bft) W-SW 247 0,1 C 28,2 km/h (4 Bft)
01.12.2015 00:05 8,8 C 8,2 C 54 % 1023,5 hPa 0,0 mm 24,6 km/h (4 Bft) W-SW 247 0,0 C 31,1 km/h (5 Bft)
01.12.2015 00:10 8,7 C 8,2 C 54 % 1023,5 hPa 0,0 mm 20,7 km/h (4 Bft) W-NW 292 -0,1 C 42,5 km/h (6 Bft)
01.12.2015 00:15 8,8 C 8,3 C 54 % 1023,4 hPa 0,0 mm 22,3 km/h (4 Bft) W-SW 247 0,0 C 25,6 km/h (4 Bft)
01.12.2015 00:20 8,9 C 8,1 C 54 % 1023,4 hPa 0,0 mm 23,6 km/h (4 Bft) W-SW 247 0,1 C 51,8 km/h (7 Bft)
01.12.2015 00:25 9,0 C 8,1 C 54 % 1023,4 hPa 0,0 mm 23,3 km/h (4 Bft) W 270 0,2 C 21,2 km/h (4 Bft)
01.12.2015 00:30 9,0 C 8,4 C 54 % 1023,4 hPa 0,0 mm 26,4 km/h (4 Bft) W-SW 247 0,2 C 58,3 km/h (7 Bft)
01.12.2015 00:35 8,9 C 8,0 C 54 % 1023,3 hPa 0,0 mm 26,4 km/h (4 Bft) W-SW 247 0,1 C 23,8 km/h (4 Bft)
01.12.2015 00:40 8,9 C 8,4 C 54 % 1023,3 hPa 0,0 mm 19,9 km/h (4 Bft) W-SW 247 0,1 C 25,1 km/h (4 Bft)
01.12.2015 00:45 8,9 C 8,4 C 54 % 1023,3 hPa 0,0 mm 21,0 km/h (4 Bft) W-SW 247 0,1 C 29,5 km/h (5 Bft)
01.12.2015 00:50 9,1 C 8,5 C 53 % 1023,3 hPa 0,0 mm 25,9 km/h (4 Bft) W 270 0,0 C 56,2 km/h (7 Bft)
01.12.2015 00:55 9,1 C 8,2 C 53 % 1023,4 hPa 0,0 mm 28,0 km/h (4 Bft) S 180 0,0 C 38,3 km/h (5 Bft)
01.12.2015 01:00 9,1 C 8,5 C 53 % 1023,4 hPa 0,0 mm 31,1 km/h (5 Bft) W-NW 292 0,0 C 50,8 km/h (7 Bft)
01.12.2015 01:05 9,1 C 8,5 C 53 % 1023,4 hPa 0,0 mm 28,7 km/h (4 Bft) W-SW 247 0,0 C 9,8 km/h (2 Bft)
01.12.2015 01:10 9,0 C 8,4 C 53 % 1023,4 hPa 0,0 mm 23,8 km/h (4 Bft) W-SW 247 -0,1 C 25,6 km/h (4 Bft)
01.12.2015 01:15 9,0 C 8,5 C 53 % 1023,1 hPa 0,0 mm 20,5 km/h (4 Bft) W 270 -0,1 C 24,6 km/h (4 Bft)
01.12.2015 01:20 8,9 C 8,5 C 53 % 1023,1 hPa 0,0 mm 18,6 km/h (3 Bft) W 270 -0,1 C 19,2 km/h (3 Bft)
01.12.2015 01:25 8,9 C 8,4 C 53 % 1023,1 hPa 0,0 mm 19,4 km/h (3 Bft) SW 225 -0,1 C 22,0 km/h (4 Bft)
01.12.2015 01:30 8,9 C 8,4 C 53 % 1023,1 hPa 0,0 mm 19,9 km/h (4 Bft) W-SW 247 -0,1 C 19,9 km/h (4 Bft)
01.12.2015 01:35 9,0 C 8,5 C 53 % 1023,0 hPa 0,0 mm 21,2 km/h (4 Bft) W-SW 247 -0,1 C 24,3 km/h (4 Bft)
01.12.2015 01:40 9,2 C 8,6 C 52 % 1023,0 hPa 0,0 mm 24,6 km/h (4 Bft) W-NW 292 -0,1 C 70,4 km/h (8 Bft)
01.12.2015 01:45 9,3 C 8,7 C 52 % 1023,0 hPa 0,0 mm 25,1 km/h (4 Bft) W-NW 292 -0,0 C 41,9 km/h (6 Bft)
01.12.2015 01:50 9,4 C 8,9 C 52 % 1023,0 hPa 0,0 mm 23,0 km/h (4 Bft) W 270 0,1 C 57,2 km/h (7 Bft)
01.12.2015 01:55 9,5 C 8,7 C 52 % 1022,8 hPa 0,0 mm 24,6 km/h (4 Bft) W-SW 247 0,1 C 20,7 km/h (4 Bft)
01.12.2015 02:00 9,5 C 8,7 C 52 % 1022,8 hPa 0,0 mm 24,9 km/h (4 Bft) W 270 0,1 C 27,7 km/h (4 Bft)
01.12.2015 02:05 9,4 C 8,9 C 52 % 1022,8 hPa 0,0 mm 23,6 km/h (4 Bft) W 270 0,1 C 32,4 km/h (5 Bft)
01.12.2015 02:10 9,4 C 8,9 C 52 % 1022,8 hPa 0,0 mm 21,0 km/h (4 Bft) W 270 0,1 C 20,5 km/h (4 Bft)
01.12.2015 02:15 9,5 C 9,0 C 52 % 1022,9 hPa 0,0 mm 19,4 km/h (3 Bft) W-SW 247 0,1 C 22,0 km/h (4 Bft)
01.12.2015 02:20 9,5 C 9,1 C 52 % 1022,9 hPa 0,0 mm 19,7 km/h (3 Bft) SW 225 0,1 C 23,3 km/h (4 Bft)
01.12.2015 02:25 9,4 C 9,0 C 53 % 1022,9 hPa 0,0 mm 18,1 km/h (3 Bft) SW 225 0,3 C 15,5 km/h (3 Bft)
01.12.2015 02:30 9,6 C 9,2 C 52 % 1022,9 hPa 0,0 mm 18,9 km/h (3 Bft) W-NW 292 0,2 C 17,1 km/h (3 Bft)
01.12.2015 02:35 9,6 C 9,2 C 52 % 1023,2 hPa 0,0 mm 22,3 km/h (4 Bft) SW 225 0,2 C 43,5 km/h (6 Bft)
01.12.2015 02:40 9,7 C 9,2 C 52 % 1023,2 hPa 0,0 mm 23,6 km/h (4 Bft) W 270 0,3 C 43,8 km/h (6 Bft)
01.12.2015 02:45 9,8 C 9,3 C 52 % 1023,2 hPa 0,0 mm 24,6 km/h (4 Bft) O 90 0,4 C 27,2 km/h (4 Bft)
01.12.2015 02:50 9,7 C 9,2 C 52 % 1023,2 hPa 0,0 mm 26,7 km/h (4 Bft) W 270 0,3 C 30,3 km/h (5 Bft)
01.12.2015 02:55 9,4 C 8,9 C 52 % 1023,0 hPa 0,0 mm 23,8 km/h (4 Bft) W 270 0,1 C 24,3 km/h (4 Bft)
01.12.2015 03:00 9,4 C 8,8 C 53 % 1023,0 hPa 0,0 mm 21,0 km/h (4 Bft) W-SW 247 0,3 C 15,5 km/h (3 Bft)
01.12.2015 03:05 9,6 C 8,8 C 52 % 1023,0 hPa 0,0 mm 23,8 km/h (4 Bft) W-SW 247 0,2 C 36,3 km/h (5 Bft)
01.12.2015 03:10 9,7 C 9,1 C 52 % 1023,0 hPa 0,0 mm 27,2 km/h (4 Bft) W 270 0,3 C 43,2 km/h (6 Bft)
01.12.2015 03:15 9,6 C 9,1 C 52 % 1023,7 hPa 0,0 mm 26,4 km/h (4 Bft) W 270 0,2 C 23,6 km/h (4 Bft)
01.12.2015 03:20 9,5 C 8,8 C 52 % 1023,7 hPa 0,0 mm 24,3 km/h (4 Bft) W-NW 292 0,1 C 18,1 km/h (3 Bft)
01.12.2015 03:25 9,4 C 8,7 C 52 % 1023,7 hPa 0,0 mm 22,5 km/h (4 Bft) W 270 0,1 C 30,8 km/h (5 Bft)
01.12.2015 03:30 9,3 C 8,8 C 53 % 1023,7 hPa 0,0 mm 22,5 km/h (4 Bft) W 270 0,2 C 42,2 km/h (6 Bft)
01.12.2015 03:35 9,2 C 8,7 C 53 % 1024,2 hPa 0,0 mm 23,8 km/h (4 Bft) N-NW 337 0,1 C 40,7 km/h (6 Bft)
01.12.2015 03:40 8,9 C 8,4 C 54 % 1024,2 hPa 0,0 mm 24,6 km/h (4 Bft) W 270 0,1 C 37,3 km/h (5 Bft)
01.12.2015 03:45 8,7 C 8,1 C 55 % 1024,2 hPa 0,0 mm 25,6 km/h (4 Bft) W 270 0,2 C 38,1 km/h (5 Bft)
01.12.2015 03:50 8,4 C 7,8 C 56 % 1024,2 hPa 0,0 mm 26,2 km/h (4 Bft) W-NW 292 0,1 C 50,8 km/h (7 Bft)
01.12.2015 03:55 8,3 C 7,6 C 57 % 1024,7 hPa 0,0 mm 24,6 km/h (4 Bft) W 270 0,3 C 32,4 km/h (5 Bft)
01.12.2015 04:00 7,9 C 7,2 C 59 % 1024,7 hPa 0,0 mm 23,6 km/h (4 Bft) W 270 0,4 C 49,2 km/h (6 Bft)
01.12.2015 04:05 7,8 C 6,9 C 60 % 1024,7 hPa 0,0 mm 23,8 km/h (4 Bft) N 360 0,5 C 24,9 km/h (4 Bft)
01.12.2015 04:10 7,4 C 6,5 C 63 % 1024,7 hPa 0,0 mm 23,6 km/h (4 Bft) W 270 0,8 C 19,9 km/h (4 Bft)
01.12.2015 04:15 7,3 C 6,4 C 64 % 1025,0 hPa 0,0 mm 20,7 km/h (4 Bft) W 270 1,0 C 26,7 km/h (4 Bft)
01.12.2015 04:20 7,1 C 6,2 C 66 % 1025,0 hPa 0,0 mm 22,8 km/h (4 Bft) NW 315 1,2 C 21,0 km/h (4 Bft)
01.12.2015 04:25 6,9 C 5,9 C 68 % 1025,0 hPa 0,0 mm 23,0 km/h (4 Bft) W 270 1,4 C 21,2 km/h (4 Bft)
01.12.2015 04:30 6,6 C 5,7 C 70 % 1025,0 hPa 0,0 mm 19,2 km/h (3 Bft) W-SW 247 1,5 C 12,9 km/h (3 Bft)
01.12.2015 04:35 6,5 C 5,6 C 70 % 1025,2 hPa 0,0 mm 19,2 km/h (3 Bft) O-SO 112 1,4 C 55,2 km/h (7 Bft)
01.12.2015 04:40 6,3 C 5,3 C 73 % 1025,2 hPa 0,0 mm 20,5 km/h (4 Bft) W-NW 292 1,8 C 22,8 km/h (4 Bft)
01.12.2015 04:45 6,1 C 5,1 C 74 % 1025,2 hPa 0,0 mm 21,0 km/h (4 Bft) W 270 1,8 C 22,5 km/h (4 Bft)
01.12.2015 04:50 5,9 C 4,9 C 77 % 1025,2 hPa 0,0 mm 20,2 km/h (4 Bft) W-SW 247 2,2 C 32,1 km/h (5 Bft)
01.12.2015 04:55 5,8 C 4,8 C 78 % 1025,5 hPa 0,0 mm 20,7 km/h (4 Bft) W 270 2,3 C 31,3 km/h (5 Bft)
01.12.2015 05:00 5,7 C 4,7 C 78 % 1025,5 hPa 0,0 mm 19,4 km/h (3 Bft) NW 315 2,2 C 14,2 km/h (3 Bft)
01.12.2015 05:05 5,7 C 4,7 C 79 % 1025,5 hPa 0,0 mm 17,3 km/h (3 Bft) W 270 2,3 C 31,1 km/h (5 Bft)
01.12.2015 05:10 5,6 C 4,4 C 79 % 1025,5 hPa 0,0 mm 17,1 km/h (3 Bft) W 270 2,3 C 24,9 km/h (4 Bft)
01.12.2015 05:15 5,6 C 4,6 C 79 % 1025,3 hPa 0,0 mm 18,4 km/h (3 Bft) W 270 2,3 C 29,8 km/h (5 Bft)
01.12.2015 05:20 5,6 C 4,6 C 80 % 1025,3 hPa 0,7 mm 17,1 km/h (3 Bft) W 270 2,4 C 24,3 km/h (4 Bft)
01.12.2015 05:25 5,5 C 4,6 C 80 % 1025,3 hPa 0,0 mm 17,9 km/h (3 Bft) W 270 2,3 C 12,7 km/h (3 Bft)
01.12.2015 05:30 5,5 C 4,5 C 81 % 1025,3 hPa 0,0 mm 17,6 km/h (3 Bft) W-SW 247 2,5 C 26,2 km/h (4 Bft)
01.12.2015 05:35 5,5 C 4,2 C 81 % 1025,6 hPa 0,0 mm 17,3 km/h (3 Bft) W 270 2,5 C 11,4 km/h (2 Bft)
01.12.2015 05:40 5,5 C 4,5 C 81 % 1025,6 hPa 0,0 mm 17,1 km/h (3 Bft) W 270 2,5 C 10,6 km/h (2 Bft)
01.12.2015 05:41 5,4 C 4,3 C 81 % 1025,6 hPa 0,7 mm 16,8 km/h (3 Bft) W-NW 292 2,4 C 28,7 km/h (4 Bft)
01.12.2015 05:45 5,4 C 4,2 C 81 % 1025,6 hPa 0,0 mm 16,8 km/h (3 Bft) W-NW 292 2,4 C 28,7 km/h (4 Bft)
01.12.2015 05:50 5,4 C 4,5 C 82 % 1025,6 hPa 0,0 mm 16,1 km/h (3 Bft) W-SW 247 2,6 C 29,8 km/h (5 Bft)
01.12.2015 05:55 5,3 C 4,2 C 82 % 1025,8 hPa 0,0 mm 16,3 km/h (3 Bft) W 270 2,5 C 18,1 km/h (3 Bft)
01.12.2015 06:00 5,3 C 4,4 C 83 % 1025,8 hPa 0,0 mm 16,3 km/h (3 Bft) W-NW 292 2,7 C 24,9 km/h (4 Bft)
01.12.2015 06:05 5,3 C 4,4 C 83 % 1025,8 hPa 0,0 mm 16,6 km/h (3 Bft) W-SW 247 2,7 C 26,2 km/h (4 Bft)
01.12.2015 06:10 5,3 C 4,4 C 83 % 1025,8 hPa 0,7 mm 17,3 km/h (3 Bft) W-SW 247 2,7 C 19,2 km/h (3 Bft)
01.12.2015 06:15 5,2 C 4,0 C 84 % 1026,2 hPa 0,0 mm 17,6 km/h (3 Bft) W-SW 247 2,7 C 15,0 km/h (3 Bft)
01.12.2015 06:20 5,2 C 4,0 C 84 % 1026,2 hPa 0,0 mm 17,3 km/h (3 Bft) W-NW 292 2,7 C 25,1 km/h (4 Bft)
01.12.2015 06:25 5,2 C 4,3 C 84 % 1026,2 hPa 0,0 mm 16,8 km/h (3 Bft) SW 225 2,7 C 13,7 km/h (3 Bft)
01.12.2015 06:30 5,1 C 4,3 C 84 % 1026,2 hPa 0,0 mm 14,8 km/h (3 Bft) W-SW 247 2,6 C 11,9 km/h (2 Bft)
01.12.2015 06:35 5,0 C 4,3 C 85 % 1026,2 hPa 0,0 mm 12,7 km/h (3 Bft) W 270 2,7 C 8,5 km/h (2 Bft)
01.12.2015 06:40 5,0 C 4,3 C 85 % 1026,2 hPa 0,0 mm 13,2 km/h (3 Bft) W 270 2,7 C 16,1 km/h (3 Bft)
01.12.2015 06:45 5,0 C 4,1 C 85 % 1026,2 hPa 0,0 mm 13,2 km/h (3 Bft) W-SW 247 2,7 C 17,1 km/h (3 Bft)
01.12.2015 06:50 5,0 C 4,1 C 86 % 1026,2 hPa 0,0 mm 13,2 km/h (3 Bft) W-SW 247 2,9 C 19,9 km/h (4 Bft)
01.12.2015 06:55 5,0 C 4,1 C 86 % 1026,2 hPa 0,0 mm 12,9 km/h (3 Bft) W 270 2,9 C 14,2 km/h (3 Bft)
01.12.2015 07:00 5,1 C 4,3 C 86 % 1026,2 hPa 0,0 mm 15,3 km/h (3 Bft) W 270 3,0 C 20,2 km/h (4 Bft)
01.12.2015 07:05 5,2 C 4,1 C 85 % 1026,2 hPa 0,0 mm 15,0 km/h (3 Bft) W-SW 247 2,9 C 31,1 km/h (5 Bft)
01.12.2015 07:10 5,2 C 4,1 C 85 % 1026,2 hPa 0,0 mm 15,5 km/h (3 Bft) W-SW 247 2,9 C 28,5 km/h (4 Bft)
01.12.2015 07:15 5,3 C 4,2 C 85 % 1026,3 hPa 0,0 mm 15,5 km/h (3 Bft) W 270 3,0 C 15,3 km/h (3 Bft)
01.12.2015 07:20 5,2 C 4,4 C 84 % 1026,3 hPa 0,7 mm 14,5 km/h (3 Bft) W 270 2,7 C 20,2 km/h (4 Bft)
01.12.2015 07:25 5,3 C 4,5 C 84 % 1026,3 hPa 0,0 mm 14,8 km/h (3 Bft) W-SW 247 2,8 C 15,0 km/h (3 Bft)
01.12.2015 07:30 5,3 C 4,4 C 83 % 1026,3 hPa 0,0 mm 15,0 km/h (3 Bft) O-SO 112 2,7 C 18,6 km/h (3 Bft)
01.12.2015 07:35 5,3 C 4,5 C 83 % 1026,3 hPa 0,0 mm 12,9 km/h (3 Bft) W 270 2,7 C 10,1 km/h (2 Bft)
01.12.2015 07:40 5,3 C 4,3 C 83 % 1026,3 hPa 0,0 mm 12,4 km/h (3 Bft) W 270 2,7 C 23,0 km/h (4 Bft)
01.12.2015 07:45 5,5 C 4,6 C 82 % 1026,3 hPa 0,0 mm 14,2 km/h (3 Bft) W-SW 247 2,7 C 10,6 km/h (2 Bft)
01.12.2015 07:50 5,6 C 4,7 C 81 % 1026,3 hPa 0,0 mm 17,1 km/h (3 Bft) W 270 2,6 C 22,8 km/h (4 Bft)
01.12.2015 07:55 5,5 C 4,6 C 81 % 1026,8 hPa 0,0 mm 16,1 km/h (3 Bft) W-NW 292 2,5 C 15,8 km/h (3 Bft)
01.12.2015 08:00 5,6 C 4,7 C 80 % 1026,8 hPa 0,0 mm 15,8 km/h (3 Bft) SW 225 2,4 C 15,0 km/h (3 Bft)
01.12.2015 08:05 5,6 C 4,6 C 80 % 1026,8 hPa 0,0 mm 17,6 km/h (3 Bft) W-SW 247 2,4 C 23,6 km/h (4 Bft)
01.12.2015 08:10 5,7 C 4,7 C 79 % 1026,8 hPa 0,0 mm 20,5 km/h (4 Bft) W-NW 292 2,3 C 28,0 km/h (4 Bft)
01.12.2015 08:15 5,6 C 4,6 C 79 % 1027,1 hPa 0,0 mm 20,2 km/h (4 Bft) NW 315 2,3 C 17,9 km/h (3 Bft)
01.12.2015 08:20 5,6 C 4,6 C 80 % 1027,1 hPa 0,0 mm 18,1 km/h (3 Bft) W-SW 247 2,4 C 29,8 km/h (5 Bft)
01.12.2015 08:25 5,6 C 4,7 C 81 % 1027,1 hPa 0,0 mm 16,1 km/h (3 Bft) W 270 2,6 C 28,5 km/h (4 Bft)
01.12.2015 08:30 5,6 C 4,7 C 81 % 1027,1 hPa 0,0 mm 16,8 km/h (3 Bft) W-NW 292 2,6 C 18,1 km/h (3 Bft)
01.12.2015 08:35 5,5 C 4,6 C 81 % 1027,3 hPa 0,0 mm 16,3 km/h (3 Bft) W 270 2,5 C 14,2 km/h (3 Bft)
01.12.2015 08:40 5,5 C 4,6 C 81 % 1027,3 hPa 0,7 mm 17,3 km/h (3 Bft) W 270 2,5 C 31,3 km/h (5 Bft)
01.12.2015 08:45 5,6 C 4,6 C 81 % 1027,3 hPa 0,0 mm 18,6 km/h (3 Bft) W-SW 247 2,6 C 31,6 km/h (5 Bft)
01.12.2015 08:50 5,6 C 4,6 C 81 % 1027,3 hPa 0,0 mm 18,4 km/h (3 Bft) S 180 2,6 C 14,2 km/h (3 Bft)
01.12.2015 08:55 5,5 C 4,6 C 82 % 1027,7 hPa 0,0 mm 17,6 km/h (3 Bft) W 270 2,7 C 14,2 km/h (3 Bft)
01.12.2015 09:00 5,5 C 4,6 C 81 % 1027,7 hPa 0,0 mm 16,1 km/h (3 Bft) W 270 2,5 C 31,1 km/h (5 Bft)
01.12.2015 09:05 5,5 C 4,6 C 82 % 1027,7 hPa 0,0 mm 16,1 km/h (3 Bft) NW 315 2,7 C 18,4 km/h (3 Bft)
01.12.2015 09:10 5,5 C 4,4 C 82 % 1027,7 hPa 0,0 mm 16,3 km/h (3 Bft) W-SW 247 2,7 C 26,2 km/h (4 Bft)
01.12.2015 09:15 5,6 C 4,4 C 81 % 1028,1 hPa 0,0 mm 17,1 km/h (3 Bft) NW 315 2,6 C 16,3 km/h (3 Bft)
01.12.2015 09:20 5,6 C 4,7 C 81 % 1028,1 hPa 0,0 mm 18,9 km/h (3 Bft) W-NW 292 2,6 C 27,4 km/h (4 Bft)
01.12.2015 09:25 5,5 C 4,6 C 81 % 1028,1 hPa 0,0 mm 18,4 km/h (3 Bft) W-NW 292 2,5 C 22,3 km/h (4 Bft)
01.12.2015 09:30 5,5 C 4,6 C 82 % 1028,1 hPa 0,0 mm 15,8 km/h (3 Bft) W-SW 247 2,7 C 21,2 km/h (4 Bft)
01.12.2015 09:35 5,5 C 4,7 C 82 % 1028,2 hPa 0,7 mm 15,3 km/h (3 Bft) W 270 2,7 C 21,2 km/h (4 Bft)
01.12.2015 09:40 5,5 C 4,7 C 82 % 1028,2 hPa 0,0 mm 13,7 km/h (3 Bft) S 180 2,7 C 14,0 km/h (3 Bft)
01.12.2015 09:45 5,5 C 4,8 C 82 % 1028,2 hPa 0,0 mm 13,2 km/h (3 Bft) NW 315 2,7 C 16,1 km/h (3 Bft)
01.12.2015 09:50 5,6 C 4,7 C 82 % 1028,2 hPa 0,0 mm 12,7 km/h (3 Bft) W-SW 247 2,8 C 17,9 km/h (3 Bft)
01.12.2015 09:55 5,7 C 4,9 C 82 % 1028,2 hPa 0,0 mm 14,5 km/h (3 Bft) W 270 2,9 C 12,7 km/h (3 Bft)
01.12.2015 10:00 5,6 C 4,8 C 82 % 1028,2 hPa 0,0 mm 13,7 km/h (3 Bft) SW 225 2,8 C 13,7 km/h (3 Bft)
01.12.2015 10:05 5,6 C 4,8 C 82 % 1028,2 hPa 0,0 mm 11,1 km/h (2 Bft) W-SW 247 2,8 C 23,3 km/h (4 Bft)
01.12.2015 10:10 5,7 C 4,8 C 82 % 1028,2 hPa 0,0 mm 11,4 km/h (2 Bft) W-SW 247 2,9 C 23,8 km/h (4 Bft)
01.12.2015 10:15 5,7 C 4,8 C 82 % 1028,5 hPa 0,0 mm 11,9 km/h (2 Bft) SW 225 2,9 C 20,7 km/h (4 Bft)
01.12.2015 10:20 5,8 C 5,1 C 81 % 1028,5 hPa 0,0 mm 13,5 km/h (3 Bft) W-NW 292 2,8 C 16,6 km/h (3 Bft)
01.12.2015 10:25 5,9 C 5,0 C 81 % 1028,5 hPa 0,0 mm 14,2 km/h (3 Bft) W-SW 247 2,9 C 19,7 km/h (3 Bft)
01.12.2015 10:30 5,9 C 5,0 C 81 % 1028,5 hPa 0,0 mm 14,0 km/h (3 Bft) W-SW 247 2,9 C 20,2 km/h (4 Bft)
01.12.2015 10:35 5,9 C 5,2 C 81 % 1028,7 hPa 0,0 mm 13,2 km/h (3 Bft) W-SW 247 2,9 C 10,6 km/h (2 Bft)
01.12.2015 10:40 6,0 C 5,3 C 79 % 1028,7 hPa 0,0 mm 14,5 km/h (3 Bft) W-SW 247 2,6 C 11,9 km/h (2 Bft)
01.12.2015 10:45 5,9 C 5,2 C 80 % 1028,7 hPa 0,7 mm 13,5 km/h (3 Bft) W-SW 247 2,7 C 7,5 km/h (2 Bft)
01.12.2015 10:50 6,0 C 5,3 C 80 % 1028,7 hPa 0,0 mm 14,2 km/h (3 Bft) W-SW 247 2,8 C 14,5 km/h (3 Bft)
01.12.2015 10:55 6,0 C 5,0 C 80 % 1028,7 hPa 0,0 mm 14,0 km/h (3 Bft) W-NW 292 2,8 C 17,9 km/h (3 Bft)
01.12.2015 11:00 6,0 C 5,3 C 80 % 1028,7 hPa 0,0 mm 13,2 km/h (3 Bft) S-SW 202 2,8 C 16,6 km/h (3 Bft)
01.12.2015 11:05 6,1 C 5,4 C 80 % 1028,7 hPa 0,0 mm 13,5 km/h (3 Bft) W-SW 247 2,9 C 10,1 km/h (2 Bft)
01.12.2015 11:10 6,1 C 5,4 C 80 % 1028,7 hPa 0,0 mm 14,5 km/h (3 Bft) W 270 2,9 C 22,0 km/h (4 Bft)
01.12.2015 11:15 6,4 C 5,6 C 79 % 1028,5 hPa 0,0 mm 15,5 km/h (3 Bft) W 270 3,0 C 23,8 km/h (4 Bft)
01.12.2015 11:20 6,5 C 5,7 C 78 % 1028,5 hPa 0,0 mm 16,1 km/h (3 Bft) SW 225 2,9 C 10,4 km/h (2 Bft)
01.12.2015 11:25 6,6 C 5,8 C 77 % 1028,5 hPa 0,0 mm 15,5 km/h (3 Bft) W 270 2,9 C 23,0 km/h (4 Bft)
01.12.2015 11:30 6,8 C 5,7 C 75 % 1028,5 hPa 0,0 mm 17,6 km/h (3 Bft) W-NW 292 2,7 C 16,3 km/h (3 Bft)
01.12.2015 11:35 6,8 C 5,9 C 75 % 1028,7 hPa 0,0 mm 17,9 km/h (3 Bft) W-SW 247 2,7 C 12,4 km/h (3 Bft)
01.12.2015 11:40 6,8 C 6,0 C 76 % 1028,7 hPa 0,0 mm 15,5 km/h (3 Bft) SW 225 2,9 C 20,5 km/h (4 Bft)
01.12.2015 11:41 6,9 C 5,7 C 76 % 1028,7 hPa 0,0 mm 14,2 km/h (3 Bft) W-SW 247 3,0 C 19,4 km/h (3 Bft)
01.12.2015 11:46 6,9 C 5,9 C 76 % 1028,7 hPa 0,0 mm 14,2 km/h (3 Bft) W-SW 247 3,0 C 19,4 km/h (3 Bft)
01.12.2015 11:50 6,9 C 6,3 C 76 % 1028,7 hPa 0,0 mm 14,5 km/h (3 Bft) W-SW 247 3,0 C 19,7 km/h (3 Bft)
01.12.2015 11:55 6,9 C 6,5 C 75 % 1028,6 hPa 0,0 mm 14,5 km/h (3 Bft) W 270 2,8 C 27,7 km/h (4 Bft)
01.12.2015 12:00 7,0 C 6,6 C 73 % 1028,6 hPa 0,0 mm 16,1 km/h (3 Bft) W 270 2,5 C 32,4 km/h (5 Bft)
01.12.2015 12:05 7,0 C 6,6 C 73 % 1028,6 hPa 0,0 mm 17,3 km/h (3 Bft) W 270 2,5 C 19,7 km/h (3 Bft)
01.12.2015 12:10 7,1 C 6,7 C 73 % 1028,6 hPa 0,0 mm 17,9 km/h (3 Bft) W 270 2,6 C 13,2 km/h (3 Bft)
01.12.2015 12:15 7,1 C 6,8 C 73 % 1028,4 hPa 0,0 mm 17,1 km/h (3 Bft) W-SW 247 2,6 C 14,5 km/h (3 Bft)
01.12.2015 12:20 7,1 C 6,9 C 72 % 1028,4 hPa 0,0 mm 16,1 km/h (3 Bft) W 270 2,4 C 16,6 km/h (3 Bft)
01.12.2015 12:25 7,2 C 6,9 C 73 % 1028,4 hPa 0,0 mm 16,3 km/h (3 Bft) W-NW 292 2,7 C 15,3 km/h (3 Bft)
01.12.2015 12:30 7,2 C 7,0 C 73 % 1028,4 hPa 0,0 mm 16,1 km/h (3 Bft) W-NW 292 2,7 C 19,7 km/h (3 Bft)
01.12.2015 12:35 7,3 C 7,1 C 74 % 1028,5 hPa 0,0 mm 14,2 km/h (3 Bft) S-SW 202 3,0 C 19,2 km/h (3 Bft)
01.12.2015 12:40 7,3 C 7,2 C 73 % 1028,5 hPa 0,0 mm 14,0 km/h (3 Bft) SW 225 2,8 C 21,0 km/h (4 Bft)
01.12.2015 12:45 7,4 C 7,1 C 73 % 1028,5 hPa 0,0 mm 13,7 km/h (3 Bft) W 270 2,9 C 16,1 km/h (3 Bft)
01.12.2015 12:50 7,5 C 7,4 C 73 % 1028,5 hPa 0,0 mm 14,0 km/h (3 Bft) W 270 3,0 C 12,4 km/h (3 Bft)
01.12.2015 12:55 7,7 C 7,6 C 73 % 1028,4 hPa 0,0 mm 12,9 km/h (3 Bft) N 360 3,2 C 19,7 km/h (3 Bft)
01.12.2015 13:00 7,7 C 7,6 C 72 % 1028,4 hPa 0,0 mm 14,0 km/h (3 Bft) O-SO 112 3,0 C 32,1 km/h (5 Bft)
01.12.2015 13:05 7,8 C 7,6 C 72 % 1028,4 hPa 0,0 mm 14,5 km/h (3 Bft) W 270 3,1 C 13,7 km/h (3 Bft)
01.12.2015 13:10 7,8 C 7,6 C 72 % 1028,4 hPa 0,0 mm 15,3 km/h (3 Bft) W-NW 292 3,1 C 42,7 km/h (6 Bft)
01.12.2015 13:15 7,8 C 7,4 C 72 % 1028,9 hPa 0,0 mm 16,3 km/h (3 Bft) W 270 3,1 C 18,4 km/h (3 Bft)
01.12.2015 13:20 7,8 C 7,6 C 72 % 1028,9 hPa 0,0 mm 16,8 km/h (3 Bft) W-SW 247 3,1 C 18,9 km/h (3 Bft)
01.12.2015 13:25 7,8 C 7,6 C 72 % 1028,9 hPa 0,0 mm 14,0 km/h (3 Bft) W-NW 292 3,1 C 35,7 km/h (5 Bft)
01.12.2015 13:30 7,8 C 7,7 C 72 % 1028,9 hPa 0,0 mm 12,4 km/h (3 Bft) SW 225 3,1 C 20,5 km/h (4 Bft)
01.12.2015 13:35 7,8 C 7,7 C 72 % 1028,8 hPa 0,0 mm 13,5 km/h (3 Bft) W-NW 292 3,1 C 12,4 km/h (3 Bft)
01.12.2015 13:40 7,8 C 7,6 C 72 % 1028,8 hPa 0,0 mm 13,5 km/h (3 Bft) W 270 3,1 C 19,7 km/h (3 Bft)
01.12.2015 13:45 7,8 C 7,4 C 73 % 1028,8 hPa 0,0 mm 13,2 km/h (3 Bft) W-SW 247 3,3 C 16,1 km/h (3 Bft)
01.12.2015 13:50 7,9 C 7,7 C 72 % 1028,8 hPa 0,0 mm 12,9 km/h (3 Bft) W-NW 292 3,2 C 25,1 km/h (4 Bft)
01.12.2015 13:55 7,9 C 7,7 C 72 % 1028,8 hPa 0,0 mm 13,5 km/h (3 Bft) W-SW 247 3,2 C 15,8 km/h (3 Bft)
01.12.2015 14:00 8,1 C 8,1 C 72 % 1028,8 hPa 0,0 mm 14,8 km/h (3 Bft) S 180 3,4 C 23,6 km/h (4 Bft)
01.12.2015 14:05 8,2 C 8,2 C 72 % 1028,8 hPa 0,0 mm 14,0 km/h (3 Bft) S-SW 202 3,5 C 17,1 km/h (3 Bft)
01.12.2015 14:10 8,3 C 8,4 C 72 % 1028,8 hPa 0,0 mm 12,9 km/h (3 Bft) W-SW 247 3,6 C 16,3 km/h (3 Bft)
01.12.2015 14:15 8,3 C 8,4 C 72 % 1028,7 hPa 0,0 mm 12,9 km/h (3 Bft) NW 315 3,6 C 20,5 km/h (4 Bft)
01.12.2015 14:20 8,4 C 8,5 C 72 % 1028,7 hPa 0,0 mm 13,7 km/h (3 Bft) W-SW 247 3,7 C 20,2 km/h (4 Bft)
01.12.2015 14:25 8,4 C 8,5 C 71 % 1028,7 hPa 0,0 mm 13,2 km/h (3 Bft) W 270 3,5 C 17,3 km/h (3 Bft)
01.12.2015 14:30 8,6 C 8,5 C 71 % 1028,7 hPa 0,0 mm 12,4 km/h (3 Bft) W 270 3,6 C 20,5 km/h (4 Bft)
01.12.2015 14:35 8,6 C 8,4 C 71 % 1028,8 hPa 0,0 mm 11,7 km/h (2 Bft) W-SW 247 3,6 C 11,9 km/h (2 Bft)
01.12.2015 14:40 8,4 C 8,4 C 71 % 1028,8 hPa 0,0 mm 10,6 km/h (2 Bft) W-SW 247 3,5 C 11,1 km/h (2 Bft)
01.12.2015 14:45 8,5 C 8,4 C 71 % 1028,8 hPa 0,0 mm 9,8 km/h (2 Bft) SO 135 3,5 C 17,1 km/h (3 Bft)
01.12.2015 14:50 8,4 C 8,3 C 71 % 1028,8 hPa 0,0 mm 10,6 km/h (2 Bft) W 270 3,5 C 12,2 km/h (2 Bft)
01.12.2015 14:55 8,4 C 8,2 C 71 % 1029,0 hPa 0,0 mm 11,1 km/h (2 Bft) W 270 3,5 C 10,4 km/h (2 Bft)
01.12.2015 15:00 8,4 C 8,3 C 71 % 1029,0 hPa 0,0 mm 11,7 km/h (2 Bft) SW 225 3,5 C 8,8 km/h (2 Bft)
01.12.2015 15:05 8,6 C 8,4 C 72 % 1029,0 hPa 0,0 mm 12,4 km/h (3 Bft) W 270 3,8 C 12,2 km/h (2 Bft)
01.12.2015 15:10 8,6 C 8,3 C 73 % 1029,0 hPa 0,0 mm 10,4 km/h (2 Bft) W 270 4,0 C 8,3 km/h (2 Bft)
01.12.2015 15:15 8,4 C 8,2 C 72 % 1029,0 hPa 0,0 mm 10,9 km/h (2 Bft) W-NW 292 3,7 C 19,9 km/h (4 Bft)
01.12.2015 15:20 8,3 C 8,1 C 72 % 1029,0 hPa 0,0 mm 12,4 km/h (3 Bft) W-SW 247 3,6 C 12,2 km/h (2 Bft)
01.12.2015 15:25 8,3 C 7,9 C 74 % 1029,0 hPa 0,0 mm 11,7 km/h (2 Bft) W-SW 247 3,9 C 11,7 km/h (2 Bft)
01.12.2015 15:30 8,2 C 8,0 C 73 % 1029,0 hPa 0,0 mm 10,9 km/h (2 Bft) NW 315 3,7 C 13,2 km/h (3 Bft)
01.12.2015 15:35 8,2 C 7,9 C 75 % 1028,9 hPa 0,0 mm 11,1 km/h (2 Bft) W 270 4,0 C 8,5 km/h (2 Bft)
01.12.2015 15:40 8,2 C 7,9 C 75 % 1028,9 hPa 0,0 mm 11,9 km/h (2 Bft) W 270 4,0 C 11,9 km/h (2 Bft)
01.12.2015 15:45 8,2 C 8,0 C 75 % 1028,9 hPa 0,0 mm 12,9 km/h (3 Bft) W 270 4,0 C 21,5 km/h (4 Bft)
01.12.2015 15:50 8,1 C 7,8 C 75 % 1028,9 hPa 0,0 mm 11,9 km/h (2 Bft) W 270 3,9 C 13,7 km/h (3 Bft)
01.12.2015 15:55 8,1 C 7,7 C 75 % 1029,3 hPa 0,0 mm 12,2 km/h (2 Bft) W 270 3,9 C 22,8 km/h (4 Bft)
01.12.2015 16:00 8,0 C 7,8 C 75 % 1029,3 hPa 0,0 mm 12,7 km/h (3 Bft) W-NW 292 3,8 C 19,7 km/h (3 Bft)
01.12.2015 16:05 7,9 C 7,7 C 76 % 1029,3 hPa 0,0 mm 12,4 km/h (3 Bft) W 270 3,9 C 15,0 km/h (3 Bft)
01.12.2015 16:10 7,9 C 7,6 C 76 % 1029,3 hPa 0,0 mm 12,9 km/h (3 Bft) W-SW 247 3,9 C 19,7 km/h (3 Bft)
01.12.2015 16:15 7,9 C 7,4 C 76 % 1029,3 hPa 0,0 mm 12,7 km/h (3 Bft) NW 315 3,9 C 22,5 km/h (4 Bft)
01.12.2015 16:20 7,8 C 7,5 C 76 % 1029,3 hPa 0,0 mm 11,1 km/h (2 Bft) W-SW 247 3,8 C 22,8 km/h (4 Bft)
01.12.2015 16:25 7,8 C 7,4 C 76 % 1029,3 hPa 0,0 mm 11,4 km/h (2 Bft) W-NW 292 3,8 C 17,9 km/h (3 Bft)
01.12.2015 16:30 7,7 C 7,2 C 76 % 1029,3 hPa 0,0 mm 10,9 km/h (2 Bft) SW 225 3,7 C 8,8 km/h (2 Bft)
01.12.2015 16:35 7,7 C 7,2 C 76 % 1029,2 hPa 0,0 mm 9,8 km/h (2 Bft) N-NW 337 3,7 C 13,5 km/h (3 Bft)
01.12.2015 16:40 7,6 C 7,3 C 76 % 1029,2 hPa 0,0 mm 9,8 km/h (2 Bft) W-SW 247 3,6 C 8,8 km/h (2 Bft)
01.12.2015 16:45 7,7 C 7,3 C 76 % 1029,2 hPa 0,0 mm 9,6 km/h (2 Bft) SW 225 3,7 C 17,6 km/h (3 Bft)
01.12.2015 16:50 7,8 C 7,4 C 76 % 1029,2 hPa 0,0 mm 9,8 km/h (2 Bft) W-NW 292 3,8 C 15,0 km/h (3 Bft)
01.12.2015 16:55 7,8 C 7,4 C 76 % 1029,2 hPa 0,0 mm 10,4 km/h (2 Bft) W 270 3,8 C 21,0 km/h (4 Bft)
01.12.2015 17:00 7,9 C 7,6 C 75 % 1029,2 hPa 0,0 mm 10,1 km/h (2 Bft) NW 315 3,7 C 10,1 km/h (2 Bft)
01.12.2015 17:05 8,0 C 7,6 C 75 % 1029,2 hPa 0,0 mm 11,1 km/h (2 Bft) W-SW 247 3,8 C 15,0 km/h (3 Bft)
01.12.2015 17:10 8,1 C 7,7 C 74 % 1029,2 hPa 0,0 mm 11,9 km/h (2 Bft) W-SW 247 3,8 C 13,2 km/h (3 Bft)
01.12.2015 17:15 8,0 C 7,7 C 74 % 1029,5 hPa 0,0 mm 10,6 km/h (2 Bft) W 270 3,7 C 9,6 km/h (2 Bft)
01.12.2015 17:20 8,0 C 7,7 C 74 % 1029,5 hPa 0,0 mm 9,8 km/h (2 Bft) W 270 3,7 C 15,5 km/h (3 Bft)
01.12.2015 17:25 8,0 C 7,7 C 74 % 1029,5 hPa 0,0 mm 10,4 km/h (2 Bft) W 270 3,7 C 16,3 km/h (3 Bft)
01.12.2015 17:30 8,0 C 7,8 C 74 % 1029,5 hPa 0,0 mm 9,1 km/h (2 Bft) W-SW 247 3,7 C 5,4 km/h (1 Bft)
01.12.2015 17:35 8,0 C 7,8 C 74 % 1029,7 hPa 0,0 mm 9,1 km/h (2 Bft) W-SW 247 3,7 C 10,4 km/h (2 Bft)
01.12.2015 17:40 8,1 C 7,7 C 74 % 1029,7 hPa 0,0 mm 11,4 km/h (2 Bft) W-SW 247 3,8 C 10,6 km/h (2 Bft)
01.12.2015 17:45 8,1 C 7,8 C 73 % 1029,7 hPa 0,0 mm 12,4 km/h (3 Bft) W 270 3,6 C 9,8 km/h (2 Bft)
01.12.2015 17:47 8,1 C 7,1 C 73 % 1029,7 hPa 0,0 mm 12,4 km/h (3 Bft) W 270 3,6 C 9,8 km/h (2 Bft)
01.12.2015 17:50 8,1 C 7,7 C 73 % 1029,7 hPa 0,0 mm 11,4 km/h (2 Bft) W 270 3,6 C 14,5 km/h (3 Bft)
01.12.2015 17:55 8,1 C 7,7 C 73 % 1029,5 hPa 0,0 mm 11,4 km/h (2 Bft) W-SW 247 3,6 C 12,9 km/h (3 Bft)
01.12.2015 18:00 7,9 C 7,5 C 73 % 1029,5 hPa 0,0 mm 11,1 km/h (2 Bft) W-SW 247 3,4 C 14,2 km/h (3 Bft)
01.12.2015 18:05 7,9 C 7,6 C 74 % 1029,5 hPa 0,0 mm 9,8 km/h (2 Bft) W 270 3,6 C 7,0 km/h (2 Bft)
01.12.2015 18:10 8,0 C 7,6 C 74 % 1029,5 hPa 0,0 mm 10,4 km/h (2 Bft) W 270 3,7 C 12,9 km/h (3 Bft)
01.12.2015 18:15 8,0 C 7,5 C 74 % 1030,0 hPa 0,0 mm 12,2 km/h (2 Bft) W-SW 247 3,7 C 19,7 km/h (3 Bft)
01.12.2015 18:20 8,0 C 7,5 C 74 % 1030,0 hPa 0,0 mm 12,2 km/h (2 Bft) W-SW 247 3,7 C 19,2 km/h (3 Bft)
01.12.2015 18:25 8,1 C 7,7 C 74 % 1030,0 hPa 0,0 mm 11,7 km/h (2 Bft) W-NW 292 3,8 C 20,2 km/h (4 Bft)
01.12.2015 18:30 8,1 C 7,7 C 74 % 1030,0 hPa 0,0 mm 12,7 km/h (3 Bft) W-NW 292 3,8 C 19,2 km/h (3 Bft)
01.12.2015 18:35 8,1 C 7,7 C 74 % 1029,9 hPa 0,0 mm 12,7 km/h (3 Bft) W-NW 292 3,8 C 14,5 km/h (3 Bft)
01.12.2015 18:40 8,1 C 7,7 C 74 % 1029,9 hPa 0,0 mm 12,9 km/h (3 Bft) NW 315 3,8 C 14,0 km/h (3 Bft)
01.12.2015 18:45 8,2 C 7,7 C 73 % 1029,9 hPa 0,0 mm 12,7 km/h (3 Bft) SW 225 3,7 C 15,3 km/h (3 Bft)
01.12.2015 18:50 8,1 C 7,7 C 74 % 1029,9 hPa 0,0 mm 12,2 km/h (2 Bft) W-NW 292 3,8 C 13,7 km/h (3 Bft)
01.12.2015 18:55 8,1 C 7,7 C 74 % 1029,9 hPa 0,0 mm 12,2 km/h (2 Bft) S-SW 202 3,8 C 11,9 km/h (2 Bft)
01.12.2015 19:00 8,1 C 7,7 C 74 % 1029,9 hPa 0,0 mm 11,9 km/h (2 Bft) W 270 3,8 C 16,6 km/h (3 Bft)
01.12.2015 19:05 8,1 C 7,8 C 74 % 1029,9 hPa 0,0 mm 12,7 km/h (3 Bft) SW 225 3,8 C 13,5 km/h (3 Bft)
01.12.2015 19:10 8,1 C 7,7 C 74 % 1029,9 hPa 0,0 mm 11,9 km/h (2 Bft) W-NW 292 3,8 C 20,5 km/h (4 Bft)
01.12.2015 19:15 8,1 C 7,7 C 74 % 1030,2 hPa 0,0 mm 11,1 km/h (2 Bft) W-SW 247 3,8 C 10,4 km/h (2 Bft)
01.12.2015 19:20 8,1 C 7,6 C 74 % 1030,2 hPa 0,0 mm 12,2 km/h (2 Bft) W-SW 247 3,8 C 23,0 km/h (4 Bft)
01.12.2015 19:25 8,1 C 7,7 C 74 % 1030,2 hPa 0,0 mm 11,4 km/h (2 Bft) W-SW 247 3,8 C 10,6 km/h (2 Bft)
01.12.2015 19:30 8,0 C 7,6 C 74 % 1030,2 hPa 0,0 mm 11,9 km/h (2 Bft) W 270 3,7 C 11,9 km/h (2 Bft)
01.12.2015 19:35 7,9 C 7,5 C 75 % 1030,2 hPa 0,0 mm 10,6 km/h (2 Bft) SW 225 3,7 C 12,7 km/h (3 Bft)
01.12.2015 19:40 7,9 C 7,5 C 75 % 1030,2 hPa 0,0 mm 9,3 km/h (2 Bft) W 270 3,7 C 11,7 km/h (2 Bft)
01.12.2015 19:45 7,9 C 7,5 C 76 % 1030,2 hPa 0,0 mm 9,1 km/h (2 Bft) W-NW 292 3,9 C 14,8 km/h (3 Bft)
01.12.2015 19:50 8,0 C 7,6 C 75 % 1030,2 hPa 0,0 mm 11,1 km/h (2 Bft) NW 315 3,8 C 30,6 km/h (5 Bft)
01.12.2015 19:55 8,0 C 7,5 C 75 % 1030,3 hPa 0,0 mm 11,9 km/h (2 Bft) W-SW 247 3,8 C 7,3 km/h (2 Bft)
01.12.2015 20:00 7,9 C 7,5 C 75 % 1030,3 hPa 0,0 mm 10,9 km/h (2 Bft) W-SW 247 3,7 C 12,2 km/h (2 Bft)
01.12.2015 20:05 7,9 C 7,7 C 75 % 1030,3 hPa 0,0 mm 8,8 km/h (2 Bft) NW 315 3,7 C 8,8 km/h (2 Bft)
01.12.2015 20:10 7,9 C 7,7 C 75 % 1030,3 hPa 0,0 mm 8,0 km/h (2 Bft) W-SW 247 3,7 C 16,6 km/h (3 Bft)
01.12.2015 20:15 8,0 C 7,7 C 75 % 1030,3 hPa 0,0 mm 9,3 km/h (2 Bft) W 270 3,8 C 19,4 km/h (3 Bft)
01.12.2015 20:20 8,1 C 7,7 C 74 % 1030,3 hPa 0,0 mm 11,7 km/h (2 Bft) W 270 3,8 C 8,3 km/h (2 Bft)
01.12.2015 20:25 8,0 C 7,7 C 74 % 1030,3 hPa 0,0 mm 10,4 km/h (2 Bft) W 270 3,7 C 8,8 km/h (2 Bft)
01.12.2015 20:30 8,0 C 7,7 C 74 % 1030,3 hPa 0,0 mm 8,5 km/h (2 Bft) W 270 3,7 C 8,0 km/h (2 Bft)
01.12.2015 20:35 8,0 C 7,7 C 74 % 1030,3 hPa 0,0 mm 8,8 km/h (2 Bft) W-SW 247 3,7 C 11,1 km/h (2 Bft)
01.12.2015 20:40 8,0 C 7,9 C 74 % 1030,3 hPa 0,0 mm 7,8 km/h (2 Bft) W-SW 247 3,7 C 11,4 km/h (2 Bft)
01.12.2015 20:45 8,0 C 7,8 C 74 % 1030,3 hPa 0,0 mm 8,0 km/h (2 Bft) W-SW 247 3,7 C 7,3 km/h (2 Bft)
01.12.2015 20:50 8,0 C 7,9 C 74 % 1030,3 hPa 0,0 mm 7,5 km/h (2 Bft) W-NW 292 3,7 C 7,0 km/h (2 Bft)
01.12.2015 20:55 8,0 C 7,9 C 74 % 1030,4 hPa 0,0 mm 6,5 km/h (2 Bft) W-SW 247 3,7 C 11,1 km/h (2 Bft)
01.12.2015 21:00 8,0 C 7,9 C 74 % 1030,4 hPa 0,0 mm 6,7 km/h (2 Bft) W-SW 247 3,7 C 7,3 km/h (2 Bft)
01.12.2015 21:05 8,0 C 7,9 C 74 % 1030,4 hPa 0,0 mm 6,7 km/h (2 Bft) W-SW 247 3,7 C 3,9 km/h (1 Bft)
01.12.2015 21:10 7,9 C 7,9 C 74 % 1030,4 hPa 0,0 mm 5,7 km/h (1 Bft) W-SW 247 3,6 C 11,7 km/h (2 Bft)
01.12.2015 21:15 8,0 C 7,9 C 74 % 1030,5 hPa 0,0 mm 6,5 km/h (2 Bft) W-SW 247 3,7 C 4,7 km/h (1 Bft)
01.12.2015 21:20 8,0 C 7,8 C 74 % 1030,5 hPa 0,0 mm 7,3 km/h (2 Bft) NW 315 3,7 C 7,3 km/h (2 Bft)
01.12.2015 21:25 7,9 C 7,8 C 75 % 1030,5 hPa 0,0 mm 6,7 km/h (2 Bft) W 270 3,7 C 11,4 km/h (2 Bft)
01.12.2015 21:30 7,9 C 7,8 C 75 % 1030,5 hPa 0,0 mm 7,0 km/h (2 Bft) W-SW 247 3,7 C 11,1 km/h (2 Bft)
01.12.2015 21:35 7,9 C 7,7 C 75 % 1030,7 hPa 0,0 mm 7,8 km/h (2 Bft) W-NW 292 3,7 C 14,5 km/h (3 Bft)
01.12.2015 21:40 7,8 C 7,6 C 75 % 1030,7 hPa 0,0 mm 7,8 km/h (2 Bft) W-SW 247 3,7 C 5,4 km/h (1 Bft)
01.12.2015 21:45 7,7 C 7,4 C 76 % 1030,7 hPa 0,0 mm 7,5 km/h (2 Bft) S-SW 202 3,7 C 7,0 km/h (2 Bft)
01.12.2015 21:50 7,5 C 7,3 C 76 % 1030,7 hPa 0,0 mm 7,5 km/h (2 Bft) W 270 3,5 C 7,8 km/h (2 Bft)
01.12.2015 21:55 7,4 C 7,2 C 77 % 1030,6 hPa 0,0 mm 7,8 km/h (2 Bft) W-SW 247 3,6 C 8,8 km/h (2 Bft)
01.12.2015 22:00 7,3 C 7,1 C 77 % 1030,6 hPa 0,0 mm 8,0 km/h (2 Bft) W 270 3,5 C 13,5 km/h (3 Bft)
01.12.2015 22:05 7,3 C 7,1 C 77 % 1030,6 hPa 0,0 mm 7,0 km/h (2 Bft) W 270 3,5 C 4,9 km/h (1 Bft)
01.12.2015 22:10 7,2 C 7,2 C 77 % 1030,6 hPa 0,0 mm 5,7 km/h (1 Bft) SO 135 3,4 C 6,5 km/h (2 Bft)
01.12.2015 22:15 7,1 C 7,1 C 77 % 1030,7 hPa 0,0 mm 3,9 km/h (1 Bft) W-NW 292 3,3 C 5,7 km/h (1 Bft)
01.12.2015 22:20 7,1 C 7,1 C 77 % 1030,7 hPa 0,0 mm 3,6 km/h (1 Bft) W 270 3,3 C 9,8 km/h (2 Bft)
01.12.2015 22:25 7,1 C 7,1 C 77 % 1030,7 hPa 0,0 mm 3,9 km/h (1 Bft) SW 225 3,3 C 6,2 km/h (2 Bft)
01.12.2015 22:30 7,1 C 7,1 C 77 % 1030,7 hPa 0,0 mm 4,4 km/h (1 Bft) W 270 3,3 C 4,4 km/h (1 Bft)
01.12.2015 22:35 7,1 C 7,1 C 77 % 1030,5 hPa 0,0 mm 3,9 km/h (1 Bft) W-SW 247 3,3 C 3,6 km/h (1 Bft)
01.12.2015 22:40 7,0 C 7,0 C 77 % 1030,5 hPa 0,0 mm 3,6 km/h (1 Bft) SW 225 3,2 C 8,5 km/h (2 Bft)
01.12.2015 22:45 7,0 C 7,0 C 77 % 1030,5 hPa 0,0 mm 4,1 km/h (1 Bft) SW 225 3,2 C 4,9 km/h (1 Bft)
01.12.2015 22:50 7,0 C 6,9 C 76 % 1030,5 hPa 0,0 mm 6,2 km/h (2 Bft) S 180 3,1 C 6,0 km/h (2 Bft)
01.12.2015 22:55 7,0 C 6,8 C 76 % 1030,5 hPa 0,0 mm 6,5 km/h (2 Bft) S 180 3,1 C 8,8 km/h (2 Bft)
01.12.2015 23:00 6,9 C 6,9 C 77 % 1030,5 hPa 0,0 mm 3,9 km/h (1 Bft) O-NO 67 3,2 C 0,0 km/h (0 Bft)
01.12.2015 23:05 6,8 C 6,8 C 77 % 1030,5 hPa 0,0 mm 1,8 km/h (1 Bft) S 180 3,1 C 0,0 km/h (0 Bft)
01.12.2015 23:10 6,8 C 6,8 C 77 % 1030,5 hPa 0,0 mm 0,5 km/h (0 Bft) W-SW 247 3,1 C 0,0 km/h (0 Bft)
01.12.2015 23:15 6,8 C 6,8 C 77 % 1030,7 hPa 0,0 mm 0,8 km/h (0 Bft) W 270 3,1 C 2,8 km/h (1 Bft)
01.12.2015 23:20 6,9 C 6,9 C 77 % 1030,7 hPa 0,0 mm 0,5 km/h (0 Bft) S 180 3,2 C 3,6 km/h (1 Bft)
01.12.2015 23:25 6,9 C 6,9 C 77 % 1030,7 hPa 0,0 mm 0,5 km/h (0 Bft) SO 135 3,2 C 0,0 km/h (0 Bft)
01.12.2015 23:30 6,8 C 6,8 C 78 % 1030,7 hPa 0,0 mm 0,3 km/h (0 Bft) S-SO 157 3,2 C 0,0 km/h (0 Bft)
01.12.2015 23:35 6,7 C 6,7 C 78 % 1030,8 hPa 0,0 mm 0,0 km/h (0 Bft) W-SW 247 3,1 C 0,0 km/h (0 Bft)
01.12.2015 23:40 6,7 C 6,7 C 78 % 1030,8 hPa 0,0 mm 0,5 km/h (0 Bft) W-SW 247 3,1 C 3,6 km/h (1 Bft)
01.12.2015 23:45 6,7 C 6,7 C 77 % 1030,8 hPa 0,0 mm 0,8 km/h (0 Bft) W-NW 292 3,0 C 0,0 km/h (0 Bft)
01.12.2015 23:46 6,6 C 6,6 C 77 % 1030,8 hPa 0,0 mm 1,3 km/h (1 Bft) W-SW 247 2,9 C 3,9 km/h (1 Bft)
01.12.2015 23:49 6,6 C 6,6 C 77 % 1030,8 hPa 0,0 mm 1,3 km/h (1 Bft) W-SW 247 2,9 C 3,9 km/h (1 Bft)
01.12.2015 23:50 6,6 C 6,6 C 77 % 1030,8 hPa 0,0 mm 1,3 km/h (1 Bft) W-SW 247 2,9 C 3,9 km/h (1 Bft)
01.12.2015 23:55 6,6 C 6,6 C 77 % 1030,8 hPa 0,0 mm 1,0 km/h (0 Bft) W 270 2,9 C 0,0 km/h (0 Bft)
_ Min-Zeit 06:55 06:20 03:25 02:10 - 23:35 - - 01:30 23:55
Minimum _ 5,0 C 4,0 C 52 % 1022,8 hPa - 0,0 km/h (0 Bft) - - -0,1 C 0,0 km/h (0 Bft)
_ Max-Zeit 02:45 02:45 07:00 23:55 10:45 01:00 - - 15:10 01:40
Maximum _ 9,8 C 9,3 C 86 % 1030,8 hPa 0,7 mm 31,1 km/h
W-NW (5 Bft)
- - 4,0 C 70,4 km/h
W-NW (8 Bft)
Durchschnitt _ 7,3 C 6,8 C 73 % 1027,7 hPa #4,8 mm 14,4 km/h (3 Bft) W - 2,6 C 18,8 km/h (3 Bft)